Location: London
(51.5166°N, 0.1046°W)
Time: 13:59:54
(UTC+01:00)

ISS - Visible Passes

Search period start: 26 May 2017 00:00
Search period end: 05 June 2017 00:00
Orbit: 402 x 408 km, 51.6° (Epoch: 26 May)

Date Brightness Start Highest point End Pass type
(mag) Time Alt. Az. Time Alt. Az. Time Alt. Az.
26 May -3.9 00:48:50 10° W 00:52:08 86° N 00:55:27 10° E visible
26 May -3.7 02:25:22 10° W 02:28:35 50° SSW 02:31:46 10° SE visible
26 May -2.0 04:02:47 10° WSW 04:04:31 14° SW 04:06:14 10° S visible
26 May -3.6 22:20:30 10° SW 22:23:40 46° SSE 22:26:52 10° E visible
26 May -3.9 23:56:46 10° W 00:00:05 87° N 00:03:23 10° E visible
27 May -4.0 01:33:17 10° W 01:36:34 68° SSW 01:39:50 10° ESE visible
27 May -2.5 03:10:08 10° W 03:12:41 21° SW 03:15:13 10° SSE visible
27 May -3.9 23:04:41 10° WSW 23:08:00 85° SSE 23:11:18 10° E visible
28 May -4.0 00:41:13 10° W 00:44:31 83° SSW 00:47:23 13° ESE visible
28 May -2.7 02:17:50 10° W 02:19:56 26° WSW 02:19:56 26° WSW visible
28 May -3.9 22:12:39 10° WSW 22:15:56 70° SSE 22:19:13 10° E visible
28 May -3.9 23:49:07 10° W 23:52:26 88° N 23:55:45 10° E visible
29 May -3.5 01:25:40 10° W 01:28:33 43° SW 01:28:33 43° SW visible
29 May -3.8 22:57:01 10° W 23:00:20 86° N 23:03:38 10° E visible
30 May -3.9 00:33:32 10° W 00:36:48 61° SSW 00:37:40 42° SE visible
30 May -3.8 22:04:54 10° W 22:08:13 89° S 22:11:32 10° E visible
30 May -3.9 23:41:26 10° W 23:44:44 78° S 23:46:57 19° ESE visible
31 May -2.0 01:18:06 10° W 01:19:34 20° WSW 01:19:34 20° WSW visible
31 May -3.9 22:49:18 10° W 22:52:37 90° SE 22:55:55 10° E visible
01 Jun -3.3 00:25:51 10° W 00:28:56 39° SSW 00:28:56 39° SSW visible
01 Jun -3.8 21:57:09 10° W 22:00:28 86° N 22:03:46 10° E visible
01 Jun -3.7 23:33:40 10° W 23:36:55 55° SSW 23:38:23 28° SE visible
02 Jun -1.2 01:10:53 10° WSW 01:11:01 11° WSW 01:11:01 11° WSW visible
02 Jun -3.9 22:41:31 10° W 22:44:49 72° SSW 22:47:51 12° ESE visible
03 Jun -2.3 00:18:17 10° W 00:20:29 22° SW 00:20:29 22° SW visible
03 Jun -3.0 23:25:56 10° W 23:28:58 34° SSW 23:29:59 27° S visible
04 Jun -3.5 22:33:42 10° W 22:36:54 48° SSW 22:39:31 14° SE visible
